This is the latest recevied weather packets stored in our database for station/object W5ADC. If no packets are shown the sender has not sent any weather packets the latest 10 day(s).
| Time | Temp. | Humidity | Pressure | Rain* | Wind** | Luminosity | Snow |
|---|---|---|---|---|---|---|---|
| 1777236799 | 28.33° C | 74% | 1002.8 hPa | 0 mm | - | 361 W/m² | - |
| 1777236498 | 27.78° C | 75% | 1002.9 hPa | 0 mm | - | 280 W/m² | - |
| 1777236195 | 28.33° C | 74% | 1002.8 hPa | 0 mm | - | 327 W/m² | - |
| 1777235889 | 28.33° C | 74% | 1002.9 hPa | 0 mm | - | 254 W/m² | - |
| 1777235587 | 27.78° C | 74% | 1003.2 hPa | 0 mm | - | 327 W/m² | - |
| 1777235277 | 27.78° C | 74% | 1003.2 hPa | 0 mm | - | 240 W/m² | - |
| 1777234974 | 28.89° C | 72% | 1003.3 hPa | 0 mm | - | 335 W/m² | - |
| 1777234670 | 28.89° C | 71% | 1003 hPa | 0 mm | - | 569 W/m² | - |
| 1777234365 | 28.33° C | 72% | 1003 hPa | 0 mm | - | 266 W/m² | - |
| 1777234062 | 28.33° C | 72% | 1003 hPa | 0 mm | - | 506 W/m² | - |
| 1777233758 | 28.33° C | 72% | 1003.2 hPa | 0 mm | - | 705 W/m² | - |
| 1777233454 | 28.33° C | 74% | 1003.3 hPa | 0 mm | - | 679 W/m² | - |
| 1777233153 | 27.78° C | 74% | 1003.1 hPa | 0 mm | - | 663 W/m² | - |
| 1777232849 | 27.78° C | 75% | 1003.2 hPa | 0 mm | - | 543 W/m² | - |
| 1777232547 | 28.33° C | 75% | 1003.2 hPa | 0 mm | - | 521 W/m² | - |
| 1777232246 | 27.78° C | 75% | 1003.3 hPa | 0 mm | - | 599 W/m² | - |
| 1777231940 | 27.78° C | 76% | 1003.5 hPa | 0 mm | - | 592 W/m² | - |
| 1777231639 | 27.78° C | 76% | 1003.6 hPa | 0 mm | - | 515 W/m² | - |
| 1777231335 | 27.22° C | 76% | 1003.7 hPa | 0 mm | - | 476 W/m² | - |
| 1777231030 | 26.67° C | 77% | 1003.8 hPa | 0 mm | - | 425 W/m² | - |
| 1777230726 | 26.67° C | 77% | 1003.7 hPa | 0 mm | - | 227 W/m² | - |
| 1777230421 | 27.22° C | 77% | 1003.6 hPa | 0 mm | - | 277 W/m² | - |
| 1777230118 | 27.22° C | 76% | 1003.8 hPa | 0 mm | - | 303 W/m² | - |
| 1777229815 | 27.22° C | 76% | 1003.9 hPa | 0 mm | - | 274 W/m² | - |
| 1777229512 | 27.22° C | 75% | 1004 hPa | 0 mm | - | 291 W/m² | - |
* Rain latest hour (hover to see other rain measurements)
** Current wind speed in m/s (hover to see current wind gust speed)